Beaver Island, MI

7:38 PM EDT on August 19, 2017 (GMT -0400)
Beaver Island

Weather History for KSJX - September, 2013

Change the Weather History Date:

Wednesday, September 4, 2013

  Actual Average Record
Temperature  
Mean Temperature 60 °F -  
Max Temperature 67 °F 71 °F 83 °F (1973)
Min Temperature 52 °F 52 °F 40 °F (1982)
Degree Days  
Heating Degree Days 5    
Growing Degree Days 10 (Base 50)    
Moisture  
Dew Point 51 °F    
Average Humidity 66    
Maximum Humidity 87    
Minimum Humidity 42    
Precipitation  
Precipitation 0.00 in - - ()
Sea Level Pressure  
Sea Level Pressure 30.04 in    
Wind  
Wind Speed 10 mph (NW)    
Max Wind Speed 16 mph    
Max Gust Speed 22 mph    
Visibility 10 miles    
Events      
Averages and records for this station are not official NWS values.
T = Trace of Precipitation, MM = Missing Value Source: NWS Daily Summary

Daily Weather History Graph

Daily Weather History Graph

Search for Another Location

Airport or City:

Trip Planner

Search our weather history database for the weather conditions in past years. The results will help you decide how hot, cold, wet, or windy it might be!

Date:

Astronomy

Sep. 04, 2013 Rise Set
Actual Time 7:07 AM EDT 8:14 PM EDT
Civil Twilight 6:36 AM EDT 8:44 PM EDT
Nautical Twilight 6:00 AM EDT 9:20 PM EDT
Astronomical Twilight 5:21 AM EDT 9:59 PM EDT
Moon 6:19 AM EDT (9/4) 7:31 PM EDT (9/4)
Length of Visible Light 14h 07m
Length of Day
13h 06m
Waning Crescent, 1% of the Moon is Illuminated
Sep 4
Waning Crescent
Sep 5
New
Sep 12
First Quarter
Sep 19
Full
Sep 26
Last Quarter

Hourly Weather History & Observations

Time (EDT) Temp. Dew Point Humidity Pressure Visibility Wind Dir Wind Speed Gust Speed Precip Events Conditions
12:15 AM 67.1 °F 58.5 °F 74% 29.92 in 10.0 mi WSW 15.0 mph 20.7 mph N/A   Clear
12:36 AM 67.3 °F 58.3 °F 73% 29.92 in 10.0 mi WSW 16.1 mph 21.9 mph N/A   Clear
12:55 AM 67.1 °F 58.6 °F 74% 29.92 in 10.0 mi SW 13.8 mph - N/A   Clear
1:15 AM 67.1 °F 58.5 °F 74% 29.92 in 10.0 mi SW 11.5 mph 18.4 mph N/A   Clear
1:35 AM 66.9 °F 58.5 °F 74% 29.92 in 10.0 mi SW 11.5 mph 16.1 mph N/A   Clear
1:55 AM 66.7 °F 59.0 °F 76% 29.92 in 10.0 mi SW 9.2 mph - N/A   Clear
2:15 AM 66.4 °F 59.2 °F 78% 29.91 in 10.0 mi SW 11.5 mph - N/A   Mostly Cloudy
2:35 AM 66.0 °F 59.9 °F 81% 29.91 in 10.0 mi SW 10.4 mph - N/A   Scattered Clouds
2:55 AM 66.2 °F 60.1 °F 81% 29.91 in 10.0 mi SW 9.2 mph - N/A   Scattered Clouds
3:15 AM 65.8 °F 60.1 °F 82% 29.91 in 10.0 mi SW 9.2 mph - N/A   Scattered Clouds
3:35 AM 66.2 °F 59.2 °F 78% 29.91 in 10.0 mi SW 10.4 mph - N/A   Clear
3:55 AM 66.2 °F 59.0 °F 78% 29.92 in 10.0 mi WSW 8.1 mph - N/A   Scattered Clouds
4:15 AM 65.5 °F 58.5 °F 78% 29.92 in 10.0 mi SW 10.4 mph 16.1 mph N/A   Scattered Clouds
4:35 AM 64.6 °F 58.6 °F 81% 29.92 in 10.0 mi SW 6.9 mph - N/A   Clear
4:55 AM 64.4 °F 58.5 °F 81% 29.92 in 10.0 mi WSW 8.1 mph - N/A   Clear
5:15 AM 63.3 °F 58.3 °F 84% 29.92 in 10.0 mi WSW 5.8 mph - N/A   Clear
5:35 AM 63.1 °F 58.3 °F 84% 29.93 in 10.0 mi West 5.8 mph - N/A   Clear
5:55 AM 63.7 °F 58.1 °F 82% 29.93 in 10.0 mi West 5.8 mph - N/A   Clear
6:15 AM 64.0 °F 57.4 °F 79% 29.93 in 10.0 mi NW 8.1 mph - N/A   Clear
6:36 AM 63.1 °F 56.8 °F 80% 29.95 in 10.0 mi NW 8.1 mph - N/A   Clear
6:55 AM 62.1 °F 56.7 °F 82% 29.96 in 10.0 mi NNW 6.9 mph - N/A   Clear
7:15 AM 61.2 °F 56.5 °F 85% 29.98 in 10.0 mi North 5.8 mph - N/A   Scattered Clouds
7:35 AM 60.4 °F 56.3 °F 86% 29.99 in 10.0 mi NNW 5.8 mph - N/A   Scattered Clouds
7:55 AM 60.8 °F 57.0 °F 87% 29.99 in 10.0 mi NNW 4.6 mph - N/A   Overcast
8:15 AM 61.2 °F 57.2 °F 87% 30.00 in 10.0 mi North 8.1 mph - N/A   Overcast
8:35 AM 60.4 °F 56.3 °F 86% 30.02 in 10.0 mi North 10.4 mph 17.3 mph N/A   Overcast
8:55 AM 59.9 °F 55.6 °F 86% 30.03 in 10.0 mi North 6.9 mph - N/A   Overcast
9:15 AM 59.9 °F 55.6 °F 86% 30.03 in 10.0 mi North 4.6 mph - N/A   Overcast
9:35 AM 59.9 °F 55.4 °F 85% 30.04 in 10.0 mi NNW 6.9 mph - N/A   Overcast
9:55 AM 60.3 °F 54.3 °F 81% 30.05 in 10.0 mi North 9.2 mph 16.1 mph N/A   Overcast
10:15 AM 60.8 °F 53.6 °F 77% 30.05 in 10.0 mi North 8.1 mph - N/A   Overcast
10:35 AM 63.7 °F 53.8 °F 70% 30.06 in 10.0 mi NNE 9.2 mph - N/A   Mostly Cloudy
10:55 AM 63.1 °F 52.9 °F 69% 30.07 in 10.0 mi NNW 9.2 mph - N/A   Scattered Clouds
11:15 AM 63.9 °F 51.8 °F 65% 30.07 in 10.0 mi North 9.2 mph - N/A   Scattered Clouds
11:35 AM 63.7 °F 51.1 °F 64% 30.08 in 10.0 mi NNE 5.8 mph - N/A   Clear
11:55 AM 63.7 °F 50.2 °F 61% 30.08 in 10.0 mi North 10.4 mph - N/A   Clear
12:15 PM 64.4 °F 50.9 °F 62% 30.08 in 10.0 mi NW 10.4 mph - N/A   Scattered Clouds
12:36 PM 64.2 °F 50.9 °F 62% 30.09 in 10.0 mi NW 10.4 mph 16.1 mph N/A   Scattered Clouds
12:55 PM 64.4 °F 51.1 °F 62% 30.09 in 10.0 mi NNW 9.2 mph - N/A   Scattered Clouds
1:15 PM 64.9 °F 51.1 °F 61% 30.09 in 10.0 mi NW 10.4 mph 17.3 mph N/A   Scattered Clouds
1:35 PM 65.8 °F 49.8 °F 56% 30.09 in 10.0 mi NNW 6.9 mph - N/A   Clear
1:55 PM 65.3 °F 48.0 °F 54% 30.09 in 10.0 mi North 8.1 mph - N/A   Clear
2:15 PM 66.0 °F 46.0 °F 48% 30.09 in 10.0 mi NNW 6.9 mph - N/A   Clear
2:35 PM 66.2 °F 43.9 °F 44% 30.08 in 10.0 mi NW 8.1 mph - N/A   Clear
2:55 PM 65.8 °F 46.0 °F 49% 30.09 in 10.0 mi North 8.1 mph - N/A   Clear
3:15 PM 66.6 °F 44.6 °F 45% 30.08 in 10.0 mi WNW 9.2 mph - N/A   Clear
3:35 PM 66.7 °F 44.1 °F 44% 30.09 in 10.0 mi NW 9.2 mph - N/A   Clear
3:55 PM 67.1 °F 43.3 °F 42% 30.10 in 10.0 mi NW 9.2 mph - N/A   Clear
4:16 PM 67.1 °F 43.3 °F 42% 30.10 in 10.0 mi NNW 9.2 mph - N/A   Clear
4:35 PM 66.6 °F 43.2 °F 43% 30.10 in 10.0 mi NW 10.4 mph - N/A   Clear
4:55 PM 66.4 °F 43.5 °F 44% 30.10 in 10.0 mi NW 8.1 mph - N/A   Clear
5:15 PM 65.5 °F 43.3 °F 45% 30.10 in 10.0 mi NW 8.1 mph - N/A   Clear
5:35 PM 66.2 °F 44.2 °F 45% 30.10 in 10.0 mi NW 8.1 mph - N/A   Clear
5:55 PM 63.9 °F 43.3 °F 47% 30.11 in 10.0 mi NNW 6.9 mph - N/A   Clear
6:15 PM 64.6 °F 43.5 °F 46% 30.11 in 10.0 mi NNW 6.9 mph - N/A   Clear
6:35 PM 63.0 °F 43.7 °F 49% 30.10 in 10.0 mi North 6.9 mph - N/A   Clear
6:55 PM 62.8 °F 44.4 °F 51% 30.11 in 10.0 mi North 8.1 mph - N/A   Clear
7:15 PM 61.9 °F 43.2 °F 50% 30.11 in 10.0 mi NW 6.9 mph - N/A   Clear
7:35 PM 60.8 °F 42.6 °F 51% 30.11 in 10.0 mi NW 5.8 mph - N/A   Clear
7:55 PM 59.4 °F 43.0 °F 55% 30.12 in 10.0 mi NW 9.2 mph - N/A   Clear
8:15 PM 58.3 °F 42.1 °F 55% 30.13 in 10.0 mi NW 9.2 mph - N/A   Clear
8:35 PM 57.7 °F 42.3 °F 56% 30.13 in 10.0 mi NNW 8.1 mph - N/A   Clear
8:55 PM 56.8 °F 42.8 °F 59% 30.14 in 10.0 mi North 5.8 mph - N/A   Clear
9:15 PM 56.1 °F 43.2 °F 62% 30.14 in 10.0 mi North 5.8 mph - N/A   Clear
9:35 PM 55.4 °F 43.5 °F 64% 30.15 in 10.0 mi North 6.9 mph - N/A   Clear
9:55 PM 54.9 °F 41.5 °F 61% 30.15 in 10.0 mi North 5.8 mph - N/A   Clear
10:14 PM 54.3 °F 41.2 °F 61% 30.16 in 10.0 mi North 3.5 mph - N/A   Clear
10:35 PM 53.6 °F 42.6 °F 66% 30.17 in 10.0 mi North 5.8 mph - N/A   Clear
10:56 PM 53.1 °F 42.3 °F 67% 30.17 in 10.0 mi North 8.1 mph - N/A   Clear
11:15 PM 53.6 °F 41.5 °F 64% 30.18 in 10.0 mi North 6.9 mph - N/A   Clear
11:35 PM 53.1 °F 42.1 °F 66% 30.18 in 10.0 mi North 5.8 mph - N/A   Clear
11:56 PM 52.9 °F 42.8 °F 69% 30.18 in 10.0 mi North 4.6 mph - N/A   Clear